Weather History for Fort Wayne, IN

Change the Weather History Date:

Friday, January 4, 2013

  Actual Average Record
Temperature  
Mean Temperature 20 °F 25 °F  
Max Temperature 26 °F 33 °F 63 °F (1997)
Min Temperature 14 °F 18 °F -12 °F (1904)
Degree Days  
Heating Degree Days 45 40  
Month to date heating degree days 188 159  
Since 1 July heating degree days 2390 2487  
Cooling Degree Days 0 0  
Month to date cooling degree days 0 0  
Year to date cooling degree days 0 0  
Moisture  
Dew Point 15 °F    
Average Humidity 81    
Maximum Humidity 88    
Minimum Humidity 73    
Precipitation  
Precipitation 0.00 in 0.08 in 1.79 in (1993)
Month to date precipitation T 0.33  
Year to date precipitation T 0.33  
Snow  
Snow 0.00 in 0.30 in 3.00 in (1914)
Month to date snowfall T 1.3  
Since 1 July snowfall 9.6 11.9  
Snow Depth 2.00 in    
Sea Level Pressure  
Sea Level Pressure 30.27 in    
Wind  
Wind Speed 15 mph (WSW)    
Max Wind Speed 24 mph    
Max Gust Speed 31 mph    
Visibility 10 miles    
Events      
T = Trace of Precipitation, MM = Missing Value Source: NWS Daily Summary

Daily Weather History Graph

Daily Weather History Graph

Search for Another Location

Airport:

Trip Planner

Search our weather history database for the weather conditions in past years. The results will help you decide how hot, cold, wet, or windy it might be!

Date:

Astronomy

Jan. 04, 2013 Rise Set
Actual Time 8:05 AM EST 5:26 PM EST
Civil Twilight 7:34 AM EST 5:57 PM EST
Nautical Twilight 7:00 AM EST 6:31 PM EST
Astronomical Twilight 6:27 AM EST 7:04 PM EST
Moon 12:03 AM EST (1/4) 11:44 AM EST (1/4)
Length of Visible Light 10h 22m
Length of Day
9h 20m
Waning Gibbous, 55% of the Moon is Illuminated
Jan 4
Waning Gibbous
Jan 4
Last Quarter
Jan 11
New
Jan 18
First Quarter
Jan 26
Full

Hourly Weather History & Observations

Time (EST) Temp. Windchill Dew Point Humidity Pressure Visibility Wind Dir Wind Speed Gust Speed Precip Events Conditions
12:54 AM 23.0 °F 10.1 °F 17.1 °F 78% 30.26 in 10.0 mi WSW 15.0 mph - N/A   Mostly Cloudy
1:54 AM 21.9 °F 9.2 °F 16.0 °F 78% 30.27 in 10.0 mi WSW 13.8 mph - N/A   Overcast
2:54 AM 21.0 °F 7.6 °F 16.0 °F 81% 30.28 in 10.0 mi WSW 15.0 mph - N/A   Overcast
3:54 AM 19.9 °F 7.9 °F 15.1 °F 81% 30.27 in 10.0 mi SW 11.5 mph - N/A   Mostly Cloudy
4:54 AM 18.0 °F 4.8 °F 14.0 °F 84% 30.26 in 10.0 mi WSW 12.7 mph - N/A   Overcast
5:54 AM 15.1 °F 1.8 °F 12.0 °F 88% 30.27 in 10.0 mi WSW 11.5 mph - N/A   Scattered Clouds
6:54 AM 15.1 °F 1.8 °F 10.9 °F 84% 30.27 in 10.0 mi WSW 11.5 mph - N/A   Clear
7:54 AM 14.0 °F -0.8 °F 10.9 °F 88% 30.28 in 10.0 mi WSW 13.8 mph - N/A   Clear
8:54 AM 14.0 °F -0.2 °F 10.0 °F 84% 30.27 in 10.0 mi WSW 12.7 mph - N/A   Clear
9:54 AM 16.0 °F 0.1 °F 10.9 °F 81% 30.28 in 10.0 mi WSW 17.3 mph - N/A   Clear
10:54 AM 19.9 °F 5.7 °F 12.0 °F 71% 30.30 in 10.0 mi WSW 16.1 mph 26.5 mph N/A   Clear
11:54 AM 19.9 °F 5.2 °F 12.9 °F 74% 30.28 in 10.0 mi WSW 17.3 mph 25.3 mph N/A   Clear
12:54 PM 21.9 °F 7.8 °F 15.1 °F 75% 30.26 in 10.0 mi SW 17.3 mph - N/A   Clear
1:54 PM 23.0 °F 7.6 °F 16.0 °F 74% 30.25 in 10.0 mi SW 21.9 mph - N/A   Clear
2:54 PM 24.1 °F 10.1 °F 17.1 °F 75% 30.23 in 10.0 mi SW 18.4 mph - N/A   Clear
3:54 PM 24.1 °F 9.0 °F 18.0 °F 77% 30.24 in 10.0 mi SW 21.9 mph 26.5 mph N/A   Clear
4:54 PM 25.0 °F 11.7 °F 18.0 °F 75% 30.24 in 10.0 mi SW 17.3 mph - N/A   Clear
5:54 PM 25.0 °F 12.2 °F 18.0 °F 75% 30.25 in 10.0 mi WSW 16.1 mph - N/A   Clear
6:54 PM 23.0 °F 11.1 °F 18.0 °F 81% 30.27 in 10.0 mi SW 12.7 mph - N/A   Clear
7:54 PM 24.1 °F 12.5 °F 19.0 °F 81% 30.28 in 10.0 mi SW 12.7 mph - N/A   Clear
8:54 PM 24.1 °F 12.5 °F 19.0 °F 81% 30.29 in 10.0 mi WSW 12.7 mph - N/A   Clear
9:54 PM 24.1 °F 13.1 °F 19.0 °F 81% 30.29 in 10.0 mi WSW 11.5 mph - N/A   Clear
10:54 PM 21.9 °F 11.7 °F 18.0 °F 85% 30.30 in 10.0 mi WSW 9.2 mph - N/A   Clear
11:54 PM 19.0 °F 7.5 °F 15.1 °F 85% 30.30 in 10.0 mi SW 10.4 mph - N/A   Clear